687  
ASUS43 KFSD 172202  
RWRFSD  
 
WEATHER ROUNDUP FOR SE SOUTH DAKOTA/SW MINNESOTA/NW IOWA  
NATIONAL WEATHER SERVICE SIOUX FALLS SD  
400 PM CST WED JAN 17 2018  
 
NOTE: "FAIR" INDICATES FEW OR NO CLOUDS BELOW 12,000 FEET WITH NO  
SIGNIFICANT WEATHER AND OR S TO VISIBILITY
.  
 
 
SDZ038>040-050-052>070-172300-  
SOUTHEAST SOUTH DAKOTA  
 
CITY SKY/WX TMP DP RH WIND PRES REMARKS
 
BROOKINGS SUNNY 29 17 61 SW13 30.12F WCI 19  
CHAMBERLAIN SUNNY 41 27 56 W10 30.19R  
HURON SUNNY 42 22 44 W8 30.15F  
MADISON FAIR 27 18 69 SW15 30.14F WCI 15  
MITCHELL SUNNY 36 21 54 SW12 30.19S  
SIOUX FALLS SUNNY 32 17 54 SW13G18 30.20S WCI 22  
WINNER FAIR 41 27 57 W10 30.20S  
YANKTON SUNNY 39 18 42 SW8 30.23R  

 
 
MNZ071-072-080-081-089-090-097-098-172300-  
SOUTHWEST MINNESOTA  
 
CITY SKY/WX TMP DP RH WIND PRES REMARKS
 
FAIRMONT CLEAR 29 18 63 SW20 30.16R WCI 16  
JACKSON CLEAR 30 18 59 SW21 30.16S WCI 17  
LUVERNE SUNNY 30 19 64 W9 30.20S WCI 22  
MARSHALL CLEAR 30 17 58 SW16G24 30.09F WCI 19  
MONTEVIDEO CLEAR 39 18 41 W9 30.10R  
PIPESTONE SUNNY 25 16 68 W12 30.16S WCI 14  
REDWOOD FALLS CLEAR 30 16 56 SW12 30.12F WCI 20  
WINDOM CLEAR 28 10 47 SW22 30.15R WCI 15  
WORTHINGTON SUNNY 28 17 63 SW22 30.16R WCI 14  

 
 
IAZ001>003-012>014-020>022-031-032-NEZ013-014-SDZ071-172300-  
NORTHWEST IOWA  
 
CITY SKY/WX TMP DP RH WIND PRES REMARKS
 
CHEROKEE SUNNY 31 17 58 SW15G21 30.25F WCI 20  
DENISON SUNNY 28 14 54 SW17G24 30.33S WCI 16  
ESTHERVILLE CLEAR 28 17 63 SW23G32 30.16F WCI 14  
LE MARS SUNNY 34 18 51 S16G22 30.24F WCI 23  
ORANGE CITY SUNNY 34 19 55 SW16 30.22S WCI 23  
SHELDON SUNNY 32 18 55 SW17 30.19S WCI 21  
SIOUX CITY SUNNY 35 19 52 SW14 30.29F WCI 26  
SPENCER SUNNY 30 16 56 SW16G24 30.22R WCI 19  
STORM LAKE SUNNY 27 16 63 SW22G29 30.25S WCI 12  

 
 
ABBREVIATIONS USED IN REMARKS  
TC - TEMPERATURE IN CELSIUS  
WCI - WIND CHILL INDEX  
HX - HEAT INDEX  
VSB - VISIBILITY  
 
 
 
CLICK HERE TO GO TO PREVIOUS BULLETINS.

The Nexlab SD Page
The Nexlab IA Page
The Nexlab MN Page
The Nexlab NE Page Main Text Page